www.pogodaiklimat.ru

Погода и климат >> Архив погоды >> Франция >> Лион аэропорт


ПОГОДА в Лион аэропорту

  • Прогноз погоды в Лион аэропорту
  • Монитор погоды в Лион аэропорту

АРХИВ ПОГОДЫ в Лион аэропорту

Время (UTC), дата Ветер
(напр.,м/с)
 
Видим.   Явления Облачность Т
(С)
Тd
(С)
f
(%)
Тe
(С)
Тes
(С)
Комфортность P
(гПа)
Po
(гПа)
Тmin
(С)
Tmax
(С)
R
(мм)
R24
(мм)
S
(см)
01 11.09 С 2 60 км н/о +15.4 +6.9 57 +15 +15 1020.6 997.1
02 11.09 С 2 60 км н/о +14.9 +6.7 58 +15 +15 1020.7 997.2
03 11.09 СВ 1
{4}
60 км н/о +13.7 +6.5 62 +14 +14 1020.9 997.3 0
04 11.09 В 1 60 км н/о +12.2 +7.1 71 +12 +12 1022.0 998.2
05 11.09 штиль 0 19 км н/о +10.6 +6.7 77 +10 +10 1022.8 998.9
06 11.09 С 1
{5}
55 км н/о +13.0 +6.6 65 +13 +13 1023.6 999.8 +10.4 +19.7 0
07 11.09 С 2 55 км н/о +15.6 +6.3 54 +16 +16 1024.4 1000.8
08 11.09 С 2 60 км н/о +17.3 +6.5 49 +18 +18 1024.3 1000.9
09 11.09 С 2
{7}
60 км н/о +18.9 +7.6 48 +20 +20 1024.9 1001.6 0
10 11.09 С 3 50 км 8/8
[]
+21.0 +7.6 42 +23 +25 комфорт 1025.0 1001.9
11 11.09 С 3 60 км 9/9
[]
+21.5 +8.0 42 +23 +24 комфорт 1025.1 1002.0
12 11.09 С 3
{9}
60 км 10/0
[]
+22.2 +7.6 39 +23 +23 комфорт 1025.2 1002.1 0
13 11.09 С 2 55 км 10/10
[]
+23.0 +7.1 36 +24 +24 комфорт 1024.8 1001.8
14 11.09 С 3 19 км н/о +23.5 +6.7 34 +24 +24 комфорт 1024.7 1001.7
15 11.09 С 2
{8}
19 км н/о +23.4 +5.8 32 +24 +24 комфорт 1024.9 1001.9 0
16 11.09 С 2 60 км н/о +22.9 +6.6 35 +24 +24 комфорт 1025.3 1002.3
17 11.09 С 2 60 км н/о +21.9 +6.5 37 +23 +23 комфорт 1025.6 1002.5
18 11.09 С 2
{6}
60 км н/о +20.1 +6.8 42 +22 +22 комфорт 1025.9 1002.7 +13.1 +24.1 0
19 11.09 С 1 60 км н/о +17.9 +6.7 48 +19 +19 1026.9 1003.5
20 11.09 СЗ 1 60 км н/о +15.4 +7.2 58 +17 +17 1027.6 1003.9
21 11.09 СЗ 1
{3}
55 км н/о +15.6 +7.9 60 +16 +16 1028.0 1004.4 0
22 11.09 З 1 55 км н/о +14.2 +7.7 65 +15 +15 1028.4 1004.6
23 11.09 Ю 1 55 км н/о +14.3 +8.3 67 +15 +15 1028.4 1004.6
00 12.09 В 1
{3}
50 км н/о +13.0 +7.9 71 +13 +13 1028.8 1004.9 0
01 12.09 ЮВ 1 50 км н/о +11.7 +7.6 76 +12 +12 1029.1 1005.1
02 12.09 ЮВ 1 45 км н/о +10.7 +7.8 82 +11 +11 1029.4 1005.3
03 12.09 В 1
{2}
19 км н/о +10.6 +7.8 83 +11 +11 1029.5 1005.4 0
04 12.09 ЮЗ 1 18 км н/о +10.2 +7.6 84 +11 +11 1029.8 1005.7
05 12.09 С 1 35 км н/о +9.9 +7.3 84 +10 +10 1030.3 1006.1
06 12.09 В 1
{1}
30 км н/о +10.3 +8.1 86 +11 +11 1030.5 1006.4 +9.6 +20.1 0
07 12.09 штиль 0 18 км н/о +14.9 +9.3 69 +15 +15 1030.6 1006.9
08 12.09 С 1 35 км н/о +18.6 +8.8 53 +20 +20 1031.3 1007.8
09 12.09 С 1
{5}
55 км н/о +20.6 +8.6 46 +23 +23 комфорт 1031.2 1007.9 0
10 12.09 С 2 60 км н/о +23.0 +8.7 40 +24 +24 комфорт 1031.2 1008.1
11 12.09 С 2 60 км н/о +24.3 +8.3 36 +25 +25 комфорт 1030.7 1007.7
12 12.09 С 2
{8}
40 км н/о +25.8 +7.8 32 +26 +26 жарко 1030.3 1007.4 0
13 12.09 С 2 35 км н/о +26.4 +6.9 29 +26 +26 жарко 1029.8 1007.0
14 12.09 С 3 60 км н/о +26.9 +6.3 27 +26 +26 жарко 1029.6 1006.8
15 12.09 С 2
{9}
60 км н/о +26.7 +8.2 31 +27 +27 жарко 1029.4 1006.6 0
16 12.09 С 2 50 км н/о +26.8 +8.2 31 +27 +27 жарко 1029.2 1006.4
17 12.09 С 2 55 км н/о +25.8 +8.3 33 +26 +26 жарко 1029.3 1006.4
18 12.09 С 2
{5}
60 км н/о +23.7 +7.7 36 +24 +24 комфорт 1029.5 1006.5 +10.3 +27.1 0
19 12.09 С 1 60 км н/о +21.3 +8.5 44 +22 +22 комфорт 1030.1 1006.9
20 12.09 штиль 0 60 км н/о +18.0 +8.8 55 +18 +18 1030.5 1007.0
21 12.09 З 1
{2}
55 км н/о +16.7 +9.6 63 +18 +18 1030.8 1007.2 0
22 12.09 ЮЗ 1 45 км н/о +15.8 +9.7 67 +17 +17 1030.8 1007.1
23 12.09 Ю 1 55 км н/о +14.8 +9.6 71 +16 +16 1030.6 1006.8
00 13.09 В 1
{2}
55 км н/о +14.6 +9.4 71 +15 +15 1030.8 1007.0 0
01 13.09 Ю 1 50 км н/о +13.2 +9.1 76 +14 +14 1031.0 1007.1
02 13.09 З 1 45 км н/о +12.7 +9.5 81 +14 +14 1031.1 1007.2
03 13.09 СЗ 1
{1}
40 км н/о +12.2 +9.6 84 +13 +13 1031.1 1007.1 0
04 13.09 ЮВ 1 45 км н/о +12.4 +9.2 81 +12 +12 1031.3 1007.3
05 13.09 Ю 1 40 км н/о +11.7 +9.4 86 +12 +12 1031.8 1007.8
06 13.09 СВ 1
{2}
12 км н/о +12.0 +9.6 85 +13 +13 1031.7 1007.7 +11.5 +23.6 0
07 13.09 ЮВ 1 19 км н/о +16.6 +10.7 68 +18 +18 1031.4 1007.8
08 13.09 С 1 19 км н/о +19.6 +12.4 63 +23 +23 комфорт 1031.5 1008.1
09 13.09 С 1
{5}
45 км н/о +21.3 +12.7 58 +24 +24 комфорт 1030.9 1007.7 0
10 13.09 С 1 45 км н/о +22.8 +13.0 54 +26 +26 жарко 1030.4 1007.3
11 13.09 С 1 29 км н/о +25.1 +12.7 46 +27 +27 жарко 1029.8 1006.9
12 13.09 С 1
{6}
35 км н/о +26.9 +12.5 41 +28 +28 жарко 1029.4 1006.6 0
13 13.09 С 2 19 км н/о +27.9 +11.4 36 +29 +29 жарко 1028.7 1006.0
14 13.09 С 2 55 км н/о +28.4 +12.7 38 +30 +30 жарко 1028.0 1005.4
15 13.09 С 2
{8}
50 км н/о +28.9 +13.6 39 +31 +31 жарко 1027.4 1004.8 0
16 13.09 С 2 55 км н/о +28.4 +13.1 39 +30 +30 жарко 1027.2 1004.6
17 13.09 С 2 55 км н/о +27.2 +13.9 44 +29 +29 жарко 1027.6 1004.9
18 13.09 С 2
{4}
60 км н/о +25.6 +14.7 51 +28 +28 жарко 1027.8 1005.0 +12.0 +29.0 0
19 13.09 С 1 60 км н/о +23.0 +14.6 59 +27 +27 душно 1027.7 1004.7
20 13.09 С 1 60 км н/о +21.3 +14.5 65 +24 +24 комфорт 1027.9 1004.8
21 13.09 С 1
{3}
60 км н/о +20.4 +14.7 70 +24 +24 комфорт 1028.0 1004.8 0
22 13.09 С 1 60 км н/о +21.5 +14.9 66 +25 +25 комфорт 1027.7 1004.6
23 13.09 С 1 60 км н/о +20.5 +14.6 69 +24 +24 комфорт 1027.8 1004.6
00 14.09 З 1
{3}
60 км н/о +18.4 +13.9 75 +21 +21 комфорт 1028.1 1004.7 0
01 14.09 З 1 60 км н/о +17.7 +13.6 77 +19 +19 1028.1 1004.7
02 14.09 Ю 1 55 км н/о +16.9 +13.2 79 +18 +18 1027.9 1004.4
03 14.09 СВ 1
{4}
35 км н/о +17.5 +12.8 74 +19 +19 1027.8 1004.4 0
04 14.09 С 1 55 км н/о +15.6 +12.7 83 +17 +17 1028.2 1004.6
05 14.09 СЗ 1 45 км н/о +15.4 +13.2 87 +17 +17 1028.4 1004.8
06 14.09 штиль 0
{2}
35 км н/о +14.8 +13.0 89 +14 +14 1028.8 1005.1 +14.6 +25.5 0
07 14.09 ЮЗ 1 28 км н/о +18.2 +13.9 76 +20 +20 1028.8 1005.4
08 14.09 З 1 50 км н/о +20.2 +14.3 69 +24 +24 комфорт 1028.9 1005.7
09 14.09 СЗ 1
{4}
55 км н/о +22.6 +14.9 62 +26 +26 жарко 1028.3 1005.3 0
10 14.09 СЗ 1 60 км н/о +24.2 +14.9 56 +27 +27 жарко 1027.6 1004.7
11 14.09 СЗ 1 29 км н/о +25.3 +14.7 52 +28 +28 жарко 1026.9 1004.1
12 14.09 СВ 1
{5}
40 км н/о +27.1 +14.8 47 +30 +30 душно 1026.2 1003.5 0
13 14.09 С 1 45 км н/о +28.4 +14.6 43 +31 +31 душно 1025.4 1002.9
14 14.09 З 1 28 км н/о +29.9 +14.4 39 +32 +32 жарко 1024.5 1002.1
15 14.09 С 1
{5}
50 км н/о +29.4 +14.4 40 +31 +31 жарко 1024.0 1001.6 0
16 14.09 В 1 60 км н/о +29.0 +14.0 40 +31 +31 жарко 1023.8 1001.3
17 14.09 СВ 1 60 км н/о +28.3 +14.5 43 +31 +31 душно 1023.9 1001.4
18 14.09 СВ 1
{4}
18 км н/о +26.1 +15.5 52 +29 +29 жарко 1024.3 1001.6 +14.8 +30.1 0
19 14.09 С 1 60 км н/о +23.8 +16.3 63 +27 +27 жарко 1024.9 1002.0
20 14.09 штиль 0 45 км н/о +22.1 +16.4 70 +26 +26 душно 1025.1 1002.1
21 14.09 ЮЗ 1
{2}
40 км н/о +20.6 +16.4 77 +25 +25 комфорт 1025.3 1002.2 0
22 14.09 Ю 1 40 км н/о +19.6 +16.2 81 +23 +23 комфорт 1025.2 1002.0
23 14.09 ЮВ 1 40 км н/о +18.9 +15.9 83 +22 +22 комфорт 1025.0 1001.8
00 15.09 Ю 1
{2}
35 км н/о +18.4 +15.8 85 +21 +21 комфорт 1025.2 1001.9 0
01 15.09 В 1 24 км н/о +18.5 +15.9 85 +21 +21 комфорт 1024.9 1001.6
02 15.09 В 1 26 км 9/9
[]
+18.2 +15.6 85 +20 +20 1024.7 1001.4
03 15.09 ЮВ 1
{2}
23 км н/о +17.4 +15.4 88 +19 +19 1024.9 1001.5 0
04 15.09 С 1 26 км н/о +17.0 +15.5 91 +18 +18 1024.7 1001.3
05 15.09 штиль 0 9000 м н/о +16.1 +14.8 92 +16 +16 1025.0 1001.5
06 15.09 ЮВ 1
{2}
24 км н/о +15.9 +14.9 94 +17 +17 1025.4 1001.9 +15.6 +26.0 0
07 15.09 Ю 1 19 км н/о +18.4 +15.8 85 +21 +21 комфорт 1025.2 1001.9
08 15.09 Ю 1 35 км н/о +21.9 +14.8 64 +25 +25 комфорт 1024.8 1001.8
09 15.09 СВ 1
{3}
40 км н/о +24.7 +15.1 55 +28 +28 душно 1024.4 1001.6 0
10 15.09 Ю 1 23 км н/о +26.9 +14.6 47 +29 +29 жарко 1023.9 1001.3
11 15.09 ЮЗ 2 50 км н/о +28.6 +14.1 41 +31 +31 жарко 1023.3 1000.8
12 15.09 В 1
{6}
22 км н/о +30.3 +12.7 34 +31 +31 жарко 1022.4 1000.0 0
13 15.09 В 1 27 км н/о +32.3 +12.5 30 +33 +33 жарко 1021.4 999.2
14 15.09 Ю 2 55 км н/о +32.1 +11.3 28 +32 +32 жарко 1020.4 998.2
15 15.09 СЗ 1
{7}
19 км н/о +32.8 +11.3 27 +33 +33 жарко 1019.8 997.7 0
16 15.09 ЮЗ 1 45 км н/о +32.1 +11.3 28 +32 +32 жарко 1019.5 997.3
17 15.09 ЮВ 1 18 км н/о +31.6 +11.4 29 +32 +32 жарко 1019.3 997.1
18 15.09 С 1
{3}
60 км н/о +28.1 +11.6 36 +29 +29 жарко 1019.7 997.2 +15.9 +33.1 0
19 15.09 В 1 55 км н/о +25.0 +13.2 48 +27 +27 жарко 1020.4 997.7
20 15.09 ЮВ 1 45 км н/о +23.9 +13.7 53 +26 +26 жарко 1020.7 997.9
21 15.09 Ю 1
{3}
60 км н/о +22.7 +12.0 51 +25 +25 комфорт 1020.6 997.7 0
22 15.09 ЮВ 1 55 км н/о +21.5 +12.3 56 +24 +24 комфорт 1020.7 997.7
23 15.09 Ю 1 55 км н/о +20.3 +12.3 60 +24 +24 комфорт 1020.8 997.7
00 16.09 Ю 1
{4}
50 км н/о +20.6 +12.3 59 +24 +24 комфорт 1020.6 997.6 0
01 16.09 ЮВ 1 50 км н/о +18.7 +12.0 65 +21 +21 комфорт 1020.8 997.6
02 16.09 штиль 0 45 км н/о +17.4 +12.3 72 +17 +17 1020.7 997.4
03 16.09 штиль 0
{1}
40 км н/о +16.8 +12.7 77 +17 +17 1020.6 997.3 0
04 16.09 Ю 1 35 км н/о +16.4 +12.4 77 +18 +18 1020.3 996.9
05 16.09 штиль 0 30 км н/о +16.0 +12.5 80 +16 +16 1020.1 996.7
06 16.09 З 1
{2}
40 км н/о +16.8 +13.1 79 +18 +18 1020.2 996.9 +16.0 +28.1 0
07 16.09 ЮЗ 1 18 км н/о +19.4 +13.1 67 +22 +22 комфорт 1020.5 997.4
08 16.09 Ю 1 18 км н/о +22.8 +13.3 55 +26 +26 жарко 1020.3 997.4
09 16.09 Ю 2
{5}
19 км н/о +25.4 +13.6 48 +28 +28 жарко 1020.0 997.3 0
10 16.09 ЮВ 1 50 км н/о +27.8 +12.6 39 +29 +29 жарко 1019.6 997.1
11 16.09 ЮВ 1 35 км н/о +30.1 +12.1 33 +31 +31 жарко 1019.0 996.7
12 16.09 В 2
{6}
45 км н/о +31.4 +11.2 29 +32 +32 жарко 1018.2 996.0
13 16.09 С 1 30 км н/о +31.7 +10.4 27 +31 +31 жарко 1017.6 995.4
14 16.09 С 2 60 км н/о +32.4 +11.5 28 +32 +32 жарко 1016.9 994.8
15 16.09 СВ 2
{6}
55 км н/о +32.7 +12.9 30 +33 +33 жарко 1016.3 994.3 0
16 16.09 С 2 50 км н/о +31.7 +13.0 32 +33 +33 жарко 1016.0 993.9
17 16.09 СВ 2 55 км н/о +30.6 +12.0 32 +31 +31 жарко 1015.9 993.7
18 16.09 С 1
{4}
60 км н/о +28.1 +12.8 39 +30 +30 жарко 1016.2 993.8 +16.8 +32.9 0
19 16.09 СЗ 1 55 км н/о +25.6 +13.4 47 +28 +28 жарко 1016.9 994.3
20 16.09 Ю 1 55 км н/о +23.1 +14.1 57 +27 +27 душно 1017.2 994.4
21 16.09 Ю 1
{2}
40 км н/о +21.9 +14.3 62 +25 +25 комфорт 1017.4 994.5 0
22 16.09 штиль 0 40 км н/о +21.2 +14.6 66 +24 +24 комфорт 1017.5 994.6
23 16.09 Ю 1 35 км н/о +20.1 +14.2 69 +24 +24 комфорт 1017.9 994.9
00 17.09 СЗ 1
{2}
35 км н/о +20.9 +12.6 59 +25 +25 комфорт 1018.0 995.0 0
01 17.09 СЗ 1 55 км н/о +20.8 +9.7 49 +24 +24 комфорт 1018.0 995.0
02 17.09 С 1 60 км н/о +20.4 +8.7 47 +23 +23 комфорт 1017.8 994.8
03 17.09 С 1
{4}
60 км н/о +20.5 +7.1 42 +23 +23 комфорт 1018.1 995.1 0
04 17.09 С 2 60 км н/о +18.5 +7.6 49 +20 +20 1018.2 995.0
05 17.09 СВ 1 55 км н/о +18.7 +7.5 48 +21 +21 комфорт 1018.3 995.1
06 17.09 С 1
{4}
55 км н/о +17.9 +7.6 51 +19 +19 1018.6 995.4 +17.8 +28.1 0
07 17.09 С 1 28 км н/о +19.6 +8.3 48 +22 +22 комфорт 1018.7 995.6
08 17.09 С 2 35 км н/о +21.4 +8.0 42 +22 +22 комфорт 1018.9 995.9
09 17.09 С 2
{6}
30 км н/о +23.3 +8.6 39 +25 +25 комфорт 1018.7 995.9 0
10 17.09 С 2 50 км н/о +25.5 +8.9 35 +26 +26 жарко 1018.2 995.6
11 17.09 С 3 55 км н/о +26.6 +8.1 31 +27 +27 жарко 1017.7 995.1
12 17.09 С 2
{8}
50 км н/о +27.9 +7.7 28 +27 +27 жарко 1017.0 994.6 0
13 17.09 С 3 50 км н/о +28.4 +7.6 27 +28 +28 жарко 1016.6 994.2
14 17.09 С 2 30 км н/о +29.3 +4.7 21 +28 +28 жарко 1016.1 993.8
15 17.09 С 3
{9}
28 км н/о +28.5 +7.7 27 +28 +28 жарко 1015.8 993.4 0
16 17.09 С 3 26 км н/о +28.0 +9.3 31 +28 +28 жарко 1015.5 993.1
17 17.09 С 3 50 км н/о +26.6 +10.3 36 +27 +27 жарко 1015.4 992.9
18 17.09 С 2
{7}
60 км н/о +24.6 +11.2 43 +26 +26 жарко 1015.5 992.9 +17.9 +29.6 0
19 17.09 С 2 60 км н/о +23.0 +11.1 47 +25 +25 комфорт 1016.1 993.3
20 17.09 С 2 55 км н/о +22.3 +12.5 54 +25 +25 комфорт 1016.6 993.8
21 17.09 С 3
{8}
60 км н/о +21.0 +13.2 61 +24 +24 комфорт 1016.9 994.0 0
22 17.09 СЗ 3 60 км н/о +20.2 +12.7 62 +23 +23 комфорт 1017.0 994.0
23 17.09 С 2 60 км н/о +19.2 +11.7 62 +21 +21 комфорт 1017.2 994.1
00 18.09 СЗ 3 50 км н/о +19.0 +11.3 61 +20 +20 1017.4 994.3

 

Местоположение метеостанции Лион аэропорт (Франция): широта 45.71 долгота 4.93 высота над уровнем моря 202 м.

В архиве по умолчанию представлена погода в Лион аэропорту за последнюю неделю. Архивные данные за месяц целиком и за предыдущие месяцы, начиная с января 2011 года, Вы можете получить, выбрав интересующий диапазон дат из раскрывающегося списка и нажав кнопку "Ввод!".


*Определитесь, кто Вы:
робот инопланетянин человек

Внимание! Время в таблицах - всемирное. Для получения местного времени необходимо прибавить поправку, которая равна 1 ч.

Смотрите также архив погоды в соседних городах и на ближайших метеорологических станциях:

Погода в Лионе (Франция) (12 км)
Погода в Амберьё-ан-Бюже (Франция) (43 км)
Погода в Гренобль аэропорту (Франция) (49 км)
Погода в Ле Соваже (Франция) (49 км)
Погода в Сен-Этьене (Франция) (53 км)
Погода в Маконе (Франция) (66 км)
Погода в Шамбери (Франция) (74 км)
Погода в Гренобле (Франция) (90 км)
Погода в Анси (Франция) (95 км)
Погода в Сен-Яне (Франция) (106 км)

Пояснения к столбцам:

Ветер - указаны скорость ветра в м/с - средняя за 10 мин, порывы в срок и между сроками (в фигурных скобках) и направление, откуда дует ветер: С - северный, СВ - северо-восточный, В - восточный, ЮВ - юго-восточный, Ю - южный, ЮЗ - юго-западный, З - западный, СЗ - северо-западный.
Видимость - горизонтальная дальность видимости в метрах или километрах. При видимости от 1 до 10 км при отсутствии осадков обычно наблюдается дымка, при ухудшении видимости до 1 км и менее - туман. В сухую погоду видимость может ухудшаться дымом, пылью или мглою.
Явления - указаны атмосферные явления, наблюдавшиеся в срок или в последний час перед сроком; фигурными скобками обозначены явления, наблюдавшиеся между сроками (за 1-3 часа до срока); квадратными скобками обозначены град или гололедные отложения с указанием их диаметра в мм.
Облачность - указаны через наклонную черту общая и нижняя облачность в баллах и высота нижней границы облаков в метрах; квадратными скобками обозначены формы облаков: Ci - перистые, Cs - перисто-слоистые, Cc - перисто-кучевые, Ac - высококучевые, As - высокослоистые, Sc - слоисто-кучевые, Ns - слоисто-дождевые, Cu - кучевые, Cb - кучево-дождевые. Подробнее классификацию облаков см. в Атласе облаков (PDF).
T - Температура воздуха - температура, измеренная на высоте 2 м над землей.
Td - Температура точки росы - температура, при понижении до которой содержащийся в воздухе водяной пар достигнет насыщения.
f - Относительная влажность воздуха - влажноcть воздуха, измеренная на высоте 2 м над землей.
Te - Эффективная температура - температура, которую ощущает одетый по сезону человек в тени. Характеристика душности погоды. При расчете учитывается влияние влажности воздуха и скорости ветра на теплоощущения человека.
Tes - Эффективная температура на солнце - температура, которую ощущает человек, с поправкой на солнечный нагрев. Характеристика знойности погоды. Зависит от высоты солнца над горизонтом, облачности и скорости ветра. Ночью, в пасмурную погоду, а также при ветре 12 м/с и более поправка равна нулю.
P - Атмосферное давление - приведенное к уровню моря атмосферное давление.
Po - Атмосферное давление - измеренное на уровне метеостанции атмосферное давление.
Tmin - Минимальная температура - минимум температуры воздуха на высоте 2 м над землей.
Tmax - Максимальная температура - максимум температуры воздуха на высоте 2 м над землей.
R - Количество осадков - Количество выпавших осадков за период времени, мм. При наведении курсора мыши на число - период времени, за который выпало указанное количество осадков.
R24 - Количество осадков - Количество выпавших осадков за 24 часа, мм.
S - Снежный покров - Высота снежного покрова, см. При наведении курсора мыши на число - состояние снежного покрова и степень покрытия местности в баллах.